Flag for Australia Weather past 2 weeks in Broken Hill, New South Wales, Australia

Now
58 °F

Cool.


Feels Like: 54 °F
Forecast: 58 / 77 °F
Wind: 15 mph from South

Location: Yunta

Current Time: Feb 1, 2015 at 9:12:47 AM

Latest Report: Feb 1, 2015 at 8:30 AM


Visibility: N/A

Pressure: 29.96 "Hg

Humidity: 63%

Dew point: 45 °F

Location of Broken HillLocation

Historic Weather in Broken Hill — Graph

°F

Broken Hill temperature yesterday

Maximum temperature yesterday: 82 °F (at 5:30 PM)
Minimum temperature yesterday: 55 °F (at 6:30 AM)
Average temperature yesterday: 69 °F

Past Weeks' High & Low Weather Summary

 TemperatureHumidityPressure
High97 °F (Jan 23, 3:00 PM)79% (Jan 17, 6:30 AM)30.02 "Hg (Jan 17, 6:30 AM)
Low52 °F (Jan 27, 6:30 AM)11% (Jan 30, 5:30 PM)29.44 "Hg (Jan 20, 3:30 PM)
Average72 °F41%29.82 "Hg
* Reported Jan 17 6:30 AM — Feb 1 6:30 AM, Broken Hill, Weather by CustomWeather, © 2014

Note: Actual official high and low records may vary slightly from our data, if they occured in-between our weather recording intervals... More about our weather records

Advertising

Broken Hill weather history for previous 24 hours

 ConditionsComfort  
Time TempWeatherWind HumidityBarometerVisibility
6:30 AM
Feb 1
53 °FCool.12 mph78%29.92 "HgN/A
6:00 AM54 °FCool.12 mph78%29.91 "HgN/A
5:30 AM54 °FCool.10 mph77%29.90 "HgN/A
3:30 AM57 °FCool.9 mph69%29.88 "HgN/A
3:00 AM58 °FCool.9 mph67%29.88 "HgN/A
2:30 AM58 °FCool.10 mph65%29.89 "HgN/A
12:30 AM63 °FMild.13 mph58%29.90 "HgN/A
12:00 AM64 °FMild.13 mph55%29.90 "HgN/A
11:30 PM
Jan 31
66 °FMild.12 mph48%29.89 "HgN/A
9:30 PM72 °FMild.9 mph25%29.85 "HgN/A
9:00 PM73 °FMild.9 mph24%29.84 "HgN/A
8:30 PM74 °FMild.13 mph23%29.84 "HgN/A
6:30 PM81 °FPleasantly warm.9 mph21%29.80 "HgN/A
6:00 PM81 °FPleasantly warm.8 mph21%29.79 "HgN/A
5:30 PM82 °FPleasantly warm.8 mph21%29.79 "HgN/A
3:30 PM80 °FPleasantly warm.13 mph23%29.83 "HgN/A
3:00 PM80 °FPleasantly warm.12 mph23%29.84 "HgN/A
2:30 PM81 °FPleasantly warm.12 mph23%29.84 "HgN/A
12:30 PM75 °FMild.7 mph27%29.89 "HgN/A
12:00 PM74 °FMild.6 mph31%29.90 "HgN/A
11:30 AM70 °FMild.7 mph35%29.90 "HgN/A
9:30 AM64 °FMild.9 mph50%29.92 "HgN/A
9:00 AM62 °FRefreshingly cool.9 mph55%29.92 "HgN/A
Weather by CustomWeather, © 2014

See weather overviewHow to use our weather pages